CAPE
0 0 0 0 0 0 0 0 0 0 0 0 0 0 0 0 0 0 0 0 0 0 0 0 0 0 0 0 0 0 0 0 0 39 172 181 233 283 135 53 43 75 92 112
0 0 0 0 0 0 0 0 0 0 0 0 0 0 0 0 0 0 0 0 0 0 0 0 0 0 0 0 0 0 0 0 0 0 64 221 200 246 349 256 227 302 293 286
0 0 0 0 0 0 0 0 0 0 0 0 0 0 0 0 0 0 0 0 0 0 0 0 0 0 0 0 0 0 0 0 0 0 9 196 299 272 361 473 508 559 526 510
0 0 0 0 0 0 0 0 0 0 0 0 0 0 0 0 0 0 0 0 0 0 0 0 0 0 0 0 0 0 0 0 0 0 0 48 179 203 323 603 665 728 795 899
0 0 0 0 0 0 0 0 0 0 0 0 0 0 0 0 0 0 0 0 0 0 0 0 0 0 0 0 0 0 0 0 0 0 0 62 205 297 391 438 646 705 724 717
0 0 0 0 0 0 0 0 0 0 0 0 0 0 0 0 0 0 0 0 0 0 0 0 0 0 0 0 0 0 0 0 0 0 0 0 108 213 397 423 591 696 623 603
0 0 0 0 0 0 0 0 0 0 0 0 0 0 0 0 0 0 0 0 0 0 0 0 0 0 0 0 0 0 0 0 0 0 0 0 33 363 307 486 596 654 429 328
0 0 0 0 0 0 0 0 0 0 0 0 0 0 0 0 0 0 0 0 0 0 0 0 0 0 0 0 0 0 0 0 0 0 0 0 0 229 327 479 551 506 306 134
0 0 0 0 0 0 0 0 0 0 0 0 0 0 0 0 0 0 0 0 0 0 0 0 0 0 0 0 0 0 0 0 0 0 0 0 0 6 226 392 581 570 273 252
0 0 0 0 0 0 0 0 0 0 0 0 0 0 0 0 0 0 0 0 0 0 0 0 0 0 0 0 0 0 0 0 0 0 0 0 0 0 97 292 495 511 239 413
0 0 0 0 0 0 0 0 0 0 0 0 0 0 0 0 0 0 0 0 0 0 0 0 0 0 0 0 0 0 0 0 0 0 0 0 0 0 87 244 490 304 267 522
0 0 0 0 0 0 0 0 0 0 0 0 0 0 0 0 0 0 0 0 0 0 0 0 0 0 0 0 0 0 0 1 0 98 0 0 0 1 151 289 348 275 317 753
0 0 0 0 0 0 0 0 0 0 0 0 0 0 0 0 0 0 0 0 0 0 0 0 0 0 0 0 0 0 0 0 1 186 0 0 0 11 178 334 366 347 506 702
5 0 0 0 0 0 0 0 0 0 0 0 0 0 0 0 0 0 0 0 0 0 0 0 0 0 0 0 0 0 0 0 2 394 16 0 0 35 218 363 391 463 651 721
2 1 0 0 0 0 0 0 0 0 0 0 0 0 0 0 0 0 0 0 0 0 0 0 0 4 0 0 0 0 0 0 2 683 362 5 32 206 409 582 622 682 800 957
0 0 0 0 0 0 0 0 0 0 0 0 0 0 0 0 0 0 0 0 0 0 0 0 0 0 0 0 0 0 0 3 14 1262 1000 788 626 565 656 785 845 943 1071 1152
2 3 2 0 0 0 0 0 0 0 0 0 0 0 0 0 0 0 0 0 0 0 0 0 0 0 0 0 0 0 1 7 88 1264 1198 1030 1022 946 990 1050 1083 1121 1122 1022
0 0 6 0 0 0 0 0 0 0 0 0 0 0 0 0 0 0 0 0 0 0 0 0 0 0 0 0 0 0 0 33 81 901 1234 1351 1355 1258 1191 1182 1156 1028 937 985
0 0 0 1 0 0 0 0 0 0 0 0 0 0 0 0 0 0 0 0 0 0 0 0 0 0 0 0 0 0 1 125 25 223 1244 1327 1295 1180 1108 1125 821 747 761 776
0 0 0 0 0 0 0 0 0 0 0 0 0 0 0 0 0 0 0 0 0 0 0 0 0 0 0 0 0 0 0 67 0 261 891 714 817 831 806 556 538 596 616 424
0 2 0 1 3 0 0 0 0 0 0 0 0 0 0 0 0 0 0 0 0 0 0 0 0 0 0 0 0 0 0 42 0 0 21 553 431 313 237 192 325 271 75 25
0 0 0 0 1 0 0 0 0 0 0 0 0 0 2 0 0 0 0 0 0 0 0 0 0 0 0 0 0 0 4 3 0 0 5 348 144 134 64 84 44 44 12 2
0 7 5 0 0 0 0 0 0 0 0 0 20 2 0 0 0 0 1 0 0 3 0 0 0 0 0 0 0 0 0 7 3 0 0 181 86 89 23 12 10 7 0 0
0 0 1 0 0 0 0 0 0 0 0 0 0 0 0 0 0 0 0 0 0 0 0 1 0 0 0 0 0 0 0 9 2 0 60 65 45 42 12 11 7 0 0 0
0 0 0 0 0 0 0 0 0 0 0 0 0 0 0 0 0 3 7 1 0 0 2 5 0 0 0 0 0 0 0 0 0 0 11 8 22 11 0 0 0 0 0 0
0 0 1 2 0 1 1 0 3 8 0 0 0 0 0 2 3 6 1 2 2 2 0 1 1 0 0 0 0 0 0 0 0 0 6 6 9 0 0 0 0 0 0 0
CIN
0 0 0 0 0 0 0 0 0 0 0 0 0 0 0 0 0 0 0 0 0 0 0 0 0 0 0 0 0 0 0 0 0 -520 -452 -469 -435 -445 -532 -573 -550 -629 -687 -645
0 0 0 0 0 0 0 0 0 0 0 0 0 0 0 0 0 0 0 0 0 0 0 0 0 0 0 0 0 0 0 0 0 0 -464 -425 -445 -462 -416 -487 -604 -642 -602 -602
0 0 0 0 0 0 0 0 0 0 0 0 0 0 0 0 0 0 0 0 0 0 0 0 0 0 0 0 0 0 0 0 0 0 -355 -497 -521 -516 -453 -431 -478 -535 -533 -566
0 0 0 0 0 0 0 0 0 0 0 0 0 0 0 0 0 0 0 0 0 0 0 0 0 0 0 0 0 0 0 0 0 0 0 -452 -376 -260 -246 -257 -391 -442 -506 -411
0 0 0 0 0 0 0 0 0 0 0 0 0 0 0 0 0 0 0 0 0 0 0 0 0 0 0 0 0 0 0 0 0 0 0 -448 -371 -315 -271 -304 -287 -368 -367 -393
0 0 0 0 0 0 0 0 0 0 0 0 0 0 0 0 0 0 0 0 0 0 0 0 0 0 0 0 0 0 0 0 0 0 0 0 -406 -342 -320 -266 -236 -279 -270 -311
0 0 0 0 0 0 0 0 0 0 0 0 0 0 0 0 0 0 0 0 0 0 0 0 0 0 0 0 0 0 0 0 0 0 0 0 -369 -378 -336 -304 -239 -246 -227 -276
0 0 0 0 0 0 0 0 0 0 0 0 0 0 0 0 0 0 0 0 0 0 0 0 0 0 0 0 0 0 0 0 0 0 0 0 0 -398 -368 -357 -332 -234 -207 -243
0 0 0 0 0 0 0 0 0 0 0 0 0 0 0 0 0 0 0 0 0 0 0 0 0 0 0 0 0 0 0 0 0 0 0 0 0 -53 -431 -452 -364 -248 -277 -288
0 0 0 0 0 0 0 0 0 0 0 0 0 0 0 0 0 0 0 0 0 0 0 0 0 0 0 0 0 0 0 0 0 0 0 0 0 0 -470 -508 -348 -267 -280 -311
0 0 0 0 0 0 0 0 0 0 0 0 0 0 0 0 0 0 0 0 0 0 0 0 0 0 0 0 0 0 0 0 0 0 0 0 0 0 -461 -459 -346 -293 -298 -305
0 0 0 0 0 0 0 0 0 0 0 0 0 0 0 0 0 0 0 0 0 0 0 0 0 0 0 0 0 0 0 0 0 -604 0 0 0 -73 -430 -370 -319 -317 -283 -307
0 0 0 0 0 0 0 0 0 0 0 -1 -1 0 0 0 0 0 0 0 0 0 0 0 0 0 0 0 0 0 0 0 0 -514 0 0 0 -594 -398 -316 -289 -308 -324 -292
-14 0 0 0 0 0 0 0 0 0 0 0 0 0 0 0 0 0 0 0 0 0 0 0 0 0 0 0 0 0 0 0 0 -296 -500 0 0 -512 -361 -341 -345 -335 -332 -296
-23 -6 0 0 0 0 0 0 0 0 0 0 0 0 0 0 0 0 0 0 0 0 0 0 0 -9 0 0 0 0 0 0 0 -166 -399 -506 -562 -437 -393 -366 -363 -355 -325 -274
0 0 0 0 0 0 0 0 0 0 0 0 0 0 0 0 0 0 0 0 0 0 0 0 0 0 0 0 0 0 0 0 -235 -60 -228 -324 -394 -382 -373 -362 -356 -319 -265 -202
-4 -3 -3 0 0 -2 0 0 0 0 0 0 0 0 0 0 0 0 0 0 0 0 0 0 0 0 0 0 0 0 0 0 -189 -46 -160 -238 -284 -292 -292 -294 -258 -210 -166 -144
0 -1 -2 -1 0 0 0 0 0 0 0 0 0 0 0 0 0 0 0 0 0 0 0 0 0 0 0 0 0 0 0 -112 -185 -90 -122 -165 -190 -172 -188 -178 -147 -126 -108 -80
0 0 -2 -1 0 0 0 0 0 0 0 0 0 0 0 0 0 0 0 0 0 0 0 0 0 0 0 0 0 0 0 -24 -177 -180 -70 -90 -107 -111 -113 -93 -109 -103 -102 -93
0 0 0 0 0 0 0 0 0 0 0 0 0 0 0 0 0 0 0 0 0 0 0 0 0 0 0 0 0 0 0 -27 0 -79 -19 -93 -82 -74 -101 -137 -133 -121 -119 -138
0 0 0 0 -4 0 0 0 0 0 0 0 0 0 0 0 0 0 0 0 0 0 0 0 0 0 0 0 0 0 0 -71 0 0 -200 -44 -95 -168 -186 -203 -172 -174 -218 -257
-4 0 0 0 -3 -1 0 0 -3 0 0 0 0 0 -2 0 0 0 0 0 0 0 0 0 0 0 0 0 0 0 -69 -119 0 0 -78 -63 -172 -183 -176 -189 -232 -207 -256 -101
-2 -4 -2 0 0 0 0 0 0 0 0 0 -1 -7 -2 0 0 0 0 0 0 0 0 0 0 0 0 0 0 0 0 -5 -1 0 -79 -80 -134 -128 -176 -229 -263 -269 -17 0
0 0 -1 0 0 0 0 0 0 0 0 0 0 0 0 0 0 0 0 0 -2 -2 -7 -6 0 0 0 0 0 0 0 0 -12 0 -80 -162 -94 -136 -204 -217 -207 0 0 0
0 0 0 0 0 0 0 0 0 0 0 0 0 0 0 0 -1 -1 0 0 0 0 0 0 0 0 0 0 0 0 0 0 -9 0 -128 -92 -108 -158 0 0 0 0 0 0
0 0 0 0 0 0 0 0 -18 -16 -2 0 0 0 0 0 0 0 0 0 0 0 0 0 0 0 0 0 0 0 0 0 0 0 -78 -3 -165 0 0 0 0 0 0 0
Wind_Speed
18 19 21 24 25 24 26 26 29 29 27 34 39 45 42 38 36 36 36 36 37 39 38 37 34 35 36 35 35 33 34 35 31 30 29 29 30 29 28 24 18 16 17 17
20 21 18 22 20 20 22 26 29 30 32 36 43 52 46 42 39 34 34 35 37 40 41 38 37 37 38 38 39 37 35 37 35 33 32 32 30 30 27 28 27 22 18 16
19 19 20 19 21 22 24 25 28 32 34 36 40 48 38 32 30 34 34 34 38 38 39 41 42 43 42 41 41 42 40 40 40 38 33 33 31 28 25 28 26 23 20 18
17 15 17 24 24 21 28 24 28 31 36 40 32 49 42 35 33 32 35 36 34 37 39 40 43 43 44 46 44 43 44 44 42 40 36 35 34 31 27 29 27 26 19 19
18 18 23 23 20 19 23 24 29 32 35 36 34 38 36 34 38 32 31 33 36 37 38 40 43 44 45 45 46 46 46 46 45 41 37 36 35 33 31 28 30 26 22 18
23 21 20 17 17 20 22 25 30 28 30 34 29 31 37 28 29 35 33 33 35 36 37 40 42 44 47 47 47 46 47 49 46 44 42 40 40 36 34 31 29 28 24 22
22 20 17 18 21 21 21 28 33 32 30 33 24 37 39 37 43 33 34 36 37 37 39 41 44 46 48 50 50 49 48 51 47 46 45 42 41 38 36 34 30 26 24 23
23 25 19 17 21 23 26 24 27 35 34 34 35 37 34 29 36 33 32 33 37 40 41 41 43 45 49 51 52 50 49 52 49 47 47 43 41 40 38 32 28 27 24 21
24 26 19 20 21 22 21 23 21 31 33 39 33 36 41 37 31 29 33 36 39 40 42 44 46 46 47 50 52 50 51 53 52 49 46 42 37 36 35 30 27 27 23 21
22 30 23 21 19 20 19 17 24 23 33 38 35 41 40 38 36 33 34 37 42 42 42 43 46 48 47 48 48 49 51 53 53 52 48 41 37 32 29 31 28 25 22 21
21 23 23 20 21 20 22 23 20 21 24 34 41 38 25 32 33 36 35 41 43 44 43 43 46 46 48 48 47 49 50 51 52 51 47 40 35 30 26 26 26 24 22 21
19 22 26 26 23 22 17 16 16 22 26 26 33 42 28 27 27 30 39 48 45 43 44 44 45 48 49 48 48 48 48 50 50 50 47 40 34 29 26 25 25 23 21 19
13 19 26 26 18 17 16 15 16 20 23 28 32 32 23 31 36 38 49 45 43 44 45 43 45 48 48 45 47 47 48 49 49 47 46 40 33 28 26 25 23 22 20 19
14 15 19 23 24 22 26 22 20 18 24 25 17 31 22 33 42 38 36 39 44 45 44 44 47 48 44 44 45 45 47 46 45 45 43 39 33 29 25 24 22 20 19 17
14 21 19 20 21 23 20 24 24 14 13 13 22 19 27 25 31 28 32 37 42 43 43 43 45 44 42 42 43 42 43 43 40 39 37 37 33 28 25 25 22 20 19 16
12 24 21 29 24 23 14 42 32 15 16 16 17 17 15 16 19 29 35 38 40 39 41 40 41 39 39 38 39 37 39 38 35 34 30 28 26 25 24 23 21 18 16 15
15 19 25 30 24 28 30 36 24 22 14 18 17 20 34 26 16 22 30 37 36 38 40 43 43 37 32 34 35 35 39 35 29 29 26 23 21 21 20 20 18 16 15 13
11 13 16 29 29 24 17 23 25 20 18 21 22 26 31 44 19 16 22 24 26 24 33 41 39 34 26 23 33 35 31 31 28 26 24 23 21 20 18 18 17 16 13 12
7 5 17 18 15 26 25 25 23 24 31 27 28 26 38 40 29 16 16 10 19 26 37 40 38 36 33 26 23 24 31 28 28 26 26 24 22 18 18 18 15 12 12 13
8 2 7 14 19 22 19 21 21 25 40 20 26 36 42 42 42 39 41 41 41 32 39 41 39 39 37 32 28 25 23 21 23 21 25 24 22 20 18 15 13 12 13 11
13 11 4 11 19 22 22 19 19 30 33 34 41 48 47 39 36 40 48 43 38 36 40 42 40 33 31 29 28 26 23 23 23 24 20 21 19 18 16 14 14 14 12 10
18 19 13 15 17 20 16 19 28 37 42 45 46 46 45 33 46 50 46 40 40 41 42 39 33 31 27 29 29 27 24 21 23 24 20 19 16 17 16 14 14 13 11 9
19 13 26 19 18 28 23 16 16 33 46 44 44 45 37 46 48 50 45 45 41 41 37 34 32 31 29 27 29 29 27 23 21 25 20 17 18 17 17 15 14 12 9 7
22 25 15 28 19 10 18 14 14 31 43 40 37 35 36 40 47 48 41 40 37 35 34 30 29 30 29 28 29 29 29 26 24 26 21 14 16 20 22 17 13 10 8 5
9 19 12 4 10 34 14 12 9 18 31 35 34 40 45 42 32 43 39 36 35 35 33 29 27 28 28 28 29 30 29 28 27 22 24 31 28 25 19 16 17 11 9 6
13 7 14 6 13 12 11 12 21 24 35 37 37 38 43 38 35 37 34 33 33 32 30 28 25 25 26 26 28 28 30 35 40 30 30 31 27 22 19 15 11 9 6 1
Wind_Direction
299 289 281 281 278 281 281 279 278 280 284 284 277 273 277 282 283 282 280 279 277 275 279 279 282 281 283 284 287 288 283 282 281 278 278 275 273 267 265 265 254 263 273 285
293 287 292 291 290 287 287 284 283 286 288 288 283 273 279 281 281 282 281 282 282 283 280 281 284 285 284 283 282 283 287 283 284 279 278 276 276 272 267 267 270 270 269 276
296 292 294 298 295 288 290 290 290 289 294 293 290 279 284 285 283 283 283 283 285 284 284 283 283 282 282 282 282 281 281 283 282 280 276 276 274 275 274 268 268 265 270 279
306 306 301 297 294 297 289 297 296 295 295 287 298 276 283 284 283 285 286 288 287 287 287 287 286 285 283 281 283 283 281 280 281 280 275 269 268 268 265 271 271 273 271 277
309 309 304 298 300 306 300 306 301 298 295 294 293 284 284 286 288 291 290 288 289 290 291 290 289 288 287 286 283 280 279 278 278 278 274 269 267 269 269 267 270 274 276 277
303 310 308 307 313 312 310 306 305 305 300 289 296 290 285 291 293 297 294 292 292 293 294 294 293 292 288 287 286 283 279 275 275 275 273 268 266 266 266 265 264 268 275 279
309 308 308 309 305 312 313 309 297 294 293 291 302 295 288 292 293 296 296 296 294 295 296 297 296 294 292 288 285 282 279 274 274 272 271 269 264 264 263 265 261 261 268 278
302 299 304 311 308 306 309 308 298 290 291 295 302 295 299 306 302 302 298 298 298 296 298 299 301 298 295 290 286 280 278 273 274 272 270 269 265 262 263 262 258 258 263 271
304 299 311 310 314 314 313 308 316 299 301 296 298 301 303 307 310 306 300 303 302 301 299 299 301 301 299 295 287 280 279 273 270 270 270 269 266 260 259 253 252 254 259 271
308 297 306 308 314 316 310 321 309 312 301 298 303 303 301 309 306 309 305 306 307 307 303 302 303 301 300 299 291 283 280 273 269 266 265 266 263 259 257 255 251 248 256 267
316 304 305 308 307 307 306 308 311 314 311 306 304 308 325 320 317 310 308 307 308 306 303 303 304 306 301 299 292 286 281 275 269 263 260 261 259 255 255 252 249 247 257 264
320 306 297 301 308 310 310 310 315 310 313 315 313 304 325 329 332 323 310 308 303 304 304 302 304 303 303 298 294 287 283 275 270 261 254 255 255 252 250 248 248 250 255 261
337 316 303 307 314 317 318 319 318 320 321 314 313 315 338 327 322 321 312 309 304 306 306 306 306 304 302 297 294 289 283 276 270 259 248 248 247 247 250 248 244 248 254 259
328 313 303 298 301 309 304 308 310 313 314 319 302 267 285 321 316 326 326 320 305 302 306 306 305 302 300 293 293 291 283 278 269 255 244 242 241 243 245 246 243 246 251 255
318 304 301 298 299 302 304 304 303 295 275 281 273 297 268 305 327 336 333 326 311 304 307 309 305 296 289 288 288 288 284 276 268 250 242 239 240 241 244 245 246 249 252 251
330 307 308 297 302 303 282 266 296 254 256 267 266 272 278 313 342 337 332 322 301 294 307 303 306 297 292 283 277 275 279 269 265 244 239 236 234 237 240 241 245 246 246 245
320 314 306 298 309 308 262 281 308 300 305 321 328 338 331 340 325 337 335 293 289 291 310 312 304 292 278 270 273 262 272 260 258 240 235 233 233 233 236 240 241 242 240 240
300 312 307 297 306 306 316 307 313 314 310 319 325 334 336 312 334 334 339 268 276 275 280 299 294 281 261 261 268 271 275 259 252 243 236 233 232 237 237 239 243 243 232 212
204 299 309 311 313 309 312 316 315 307 304 320 322 333 330 331 338 287 323 307 276 274 281 289 287 279 274 259 256 262 271 258 248 244 236 235 234 234 238 240 231 213 198 191
17 86 326 324 316 318 327 326 327 321 292 328 331 327 324 324 290 283 307 288 286 274 283 289 285 282 277 267 268 273 279 264 247 245 236 235 236 234 230 216 204 199 193 190
349 346 331 326 320 321 323 330 332 305 305 318 319 312 311 314 320 279 295 284 277 274 282 287 283 264 259 259 260 264 264 259 246 237 241 235 235 227 213 190 189 188 190 181
339 335 345 336 327 326 343 340 318 311 304 306 309 310 310 326 313 302 286 276 274 276 282 279 266 258 249 257 260 259 265 268 255 232 245 232 219 207 200 185 196 190 179 172
343 357 315 329 330 319 328 313 318 319 293 307 313 315 326 314 309 299 281 279 275 277 275 273 265 257 252 251 263 258 257 267 245 231 238 219 213 203 201 199 190 183 175 171
345 325 344 321 342 331 265 310 316 327 299 315 325 328 280 282 292 291 282 281 277 278 274 261 259 261 255 254 256 259 266 266 244 233 227 206 203 198 205 199 198 191 199 191
233 345 15 345 257 294 344 345 308 328 332 329 329 291 295 286 276 287 280 272 273 275 270 260 252 254 252 254 258 260 259 253 233 231 219 205 196 196 196 205 215 216 226 151
42 62 18 338 281 299 285 303 334 333 330 328 288 284 295 283 280 282 269 267 266 267 263 255 245 240 243 255 262 256 256 246 227 224 211 198 191 195 200 203 209 231 236 179